Погода в Останинке

Россия / Новосибирская область     56°43′14″N   78°15′49″E
темп.,
°C
ветер,
м/с
пор.,
м/с
влажн.,
%
обл.,
%
осадки,
мм/ч
давл.,
гПа
погр.,
м
6 марта, сб
сб601:00−2юз61492100 0.8 1005984
04:00−3юз51194100 0.4 1005878
07:00−4ююз61295100 1.1 1004906
10:00−4ююз71392100 1.5 10021064
13:00−2ююз71495100 2.6 9991141
16:000юз91694100 1.1 9981418
19:00−4зюз71481100 1.3 10011179
22:00−8зюз51389100 0.1 1005799
7 марта, вс
вс701:00−10зюз51292100 0.1 1008677
04:00−13зюз41193100 0.1 1009416
07:00−15юз4119597 0.1 1011274
10:00−14юз4129472 0.0 1013352
13:00−9зюз5109082 0.0 1015656
16:00−7зюз5988100 0.1 1016947
19:00−10юз3893100 0.1 1017369
22:00−15ююз239785 0.0 101821
8 марта, пн
пн801:00−13ююв379184 0.0 1016193
04:00−10юв51395100 0.3 1012455
07:00−3ю61496100 1.8 1007855
10:00−3ю71592100 1.1 1002669
13:00−2ю81595100 1.6 999722
16:00−1ююз81595100 2.6 9951179
19:00−6зюз81484100 3.8 9981035
22:00−9з61487100 0.1 10051045
9 марта, вт
вт901:00−10зюз51290100 0.1 1010843
04:00−12зюз41291100 0.1 1014643
07:00−15зюз41095100 0.1 1018345
10:00−16юз379585 0.0 1020263
13:00−11ююз489286 0.0 1020480
16:00−9ююз5892100 0.1 1019539
19:00−11ю51092100 0.1 1017495
22:00−12ю51490100 0.0 1015469
10 марта, ср
ср1001:00−13ююз6158788 0.0 1013482
04:00−14ююз5129073 0.0 1011395
07:00−16ююз499686 0.0 1010260
10:00−14юз4995100 0.0 1010284
13:00−9юз4894100 0.0 1010352
16:00−6юз3591100 0.0 1010423
19:00−7ююз1295100 0.0 100829
22:00−9ююв1296100 0.1 100722